Weather History for KDUJ - March, 2013

Change the Weather History Date:

Friday, March 8, 2013

  Actual Average Record
Temperature  
Mean Temperature 32 °F 32 °F  
Max Temperature 38 °F 41 °F 68 °F (1987)
Min Temperature 26 °F 23 °F -5 °F (1986)
Degree Days  
Heating Degree Days 33 33  
Month to date heating degree days 303 273  
Since 1 July heating degree days 5026 5296  
Cooling Degree Days 0 0  
Month to date cooling degree days 0 0  
Year to date cooling degree days 0 0  
Moisture  
Dew Point 22 °F    
Average Humidity 69    
Maximum Humidity 85    
Minimum Humidity 52    
Precipitation  
Precipitation T in 0.10 in 1.07 in (1974)
Month to date precipitation 0.02 0.80  
Sea Level Pressure  
Sea Level Pressure 30.28 in    
Wind  
Wind Speed 10 mph (NNW)    
Max Wind Speed 21 mph    
Max Gust Speed 28 mph    
Visibility 9 miles    
Events Snow    
T = Trace of Precipitation, MM = Missing Value Source: NWS Daily Summary

Daily Weather History Graph

Daily Weather History Graph

Search for Another Location

Airport or City:

Trip Planner

Search our weather history database for the weather conditions in past years. The results will help you decide how hot, cold, wet, or windy it might be!

Date:

Astronomy

Mar. 08, 2013 Rise Set
Actual Time 6:38 AM EST 6:14 PM EST
Civil Twilight 6:10 AM EST 6:42 PM EST
Nautical Twilight 5:39 AM EST 7:14 PM EST
Astronomical Twilight 5:06 AM EST 7:46 PM EST
Moon 4:23 AM EST (3/8) 3:06 PM EST (3/8)
Length of Visible Light 12h 31m
Length of Day
11h 36m
Waning Crescent, 12% of the Moon is Illuminated
Mar 8
Waning Crescent
Mar 11
New
Mar 19
First Quarter
Mar 27
Full
Apr 3
Last Quarter

Hourly Weather History & Observations

Time (EST) Temp. Windchill Dew Point Humidity Pressure Visibility Wind Dir Wind Speed Gust Speed Precip Events Conditions
12:15 AM 30.2 °F 21.9 °F 26.6 °F 86% 30.17 in 7.0 mi WNW 9.2 mph - 0.00 in   Overcast
12:56 AM 30.0 °F 21.7 °F 26.1 °F 85% 30.22 in 10.0 mi NW 9.2 mph - 0.00 in   Overcast
1:37 AM 30.2 °F 23.4 °F 24.8 °F 80% 30.17 in 10.0 mi NW 6.9 mph - N/A   Overcast
1:56 AM 28.9 °F 21.1 °F 25.0 °F 85% 30.22 in 10.0 mi NW 8.1 mph - N/A   Mostly Cloudy
2:56 AM 28.9 °F 19.8 °F 25.0 °F 85% 30.22 in 10.0 mi NW 10.4 mph 17.3 mph N/A   Overcast
3:16 AM 28.4 °F 19.7 °F 24.8 °F 86% 30.17 in 1.8 mi NW 9.2 mph - 0.00 in Snow Light Snow
3:31 AM 28.4 °F 20.4 °F 24.8 °F 86% 30.17 in 2.5 mi NW 8.1 mph - 0.00 in Snow Light Snow
3:38 AM 28.4 °F 20.4 °F 24.8 °F 86% 30.17 in 4.0 mi NW 8.1 mph - 0.00 in   Overcast
3:56 AM 28.9 °F 17.7 °F 25.0 °F 85% 30.23 in 10.0 mi NNW 15.0 mph 21.9 mph 0.00 in   Overcast
4:06 AM 28.4 °F 18.5 °F 24.8 °F 86% 30.18 in 10.0 mi NNW 11.5 mph - N/A   Overcast
4:56 AM 28.9 °F 17.3 °F 23.0 °F 78% 30.25 in 10.0 mi NNW 16.1 mph 24.2 mph N/A   Overcast
5:56 AM 28.9 °F 19.2 °F 23.0 °F 78% 30.27 in 10.0 mi NNW 11.5 mph 18.4 mph 0.00 in   Overcast
6:09 AM 28.4 °F 18.0 °F 23.0 °F 80% 30.22 in 10.0 mi NNW 12.7 mph 19.6 mph N/A   Overcast
6:42 AM 28.4 °F 18.5 °F 21.2 °F 74% 30.23 in 10.0 mi North 11.5 mph 21.9 mph N/A   Overcast
6:56 AM 28.9 °F 19.2 °F 19.9 °F 69% 30.30 in 10.0 mi North 11.5 mph 19.6 mph N/A   Overcast
7:41 AM 28.4 °F 19.1 °F 21.2 °F 74% 30.25 in 8.0 mi NNW 10.4 mph - N/A   Overcast
7:56 AM 28.0 °F 17.5 °F 21.9 °F 78% 30.32 in 4.0 mi NNW 12.7 mph - N/A   Haze
8:56 AM 28.9 °F 19.2 °F 23.0 °F 78% 30.33 in 10.0 mi North 11.5 mph - N/A   Overcast
9:56 AM 30.0 °F 21.7 °F 23.0 °F 75% 30.34 in 10.0 mi North 9.2 mph - N/A   Overcast
10:56 AM 30.9 °F 20.7 °F 21.9 °F 69% 30.33 in 10.0 mi North 13.8 mph 23.0 mph N/A   Overcast
11:56 AM 32.0 °F 21.6 °F 21.9 °F 66% 30.33 in 10.0 mi NNW 15.0 mph 20.7 mph N/A   Overcast
12:20 PM 33.8 °F 24.3 °F 21.2 °F 60% 30.27 in 10.0 mi NW 13.8 mph 20.7 mph N/A   Scattered Clouds
12:56 PM 34.0 °F 24.6 °F 21.0 °F 59% 30.31 in 10.0 mi North 13.8 mph - N/A   Partly Cloudy
1:56 PM 36.0 °F 27.1 °F 21.9 °F 57% 30.30 in 10.0 mi NNW 13.8 mph 20.7 mph N/A   Partly Cloudy
2:56 PM 36.0 °F 28.5 °F 21.0 °F 55% 30.31 in 10.0 mi NW 10.4 mph 19.6 mph N/A   Clear
3:56 PM 37.9 °F 30.0 °F 21.0 °F 51% 30.30 in 10.0 mi North 12.7 mph 18.4 mph N/A   Clear
4:56 PM 37.9 °F 32.1 °F 21.0 °F 51% 30.32 in 10.0 mi North 8.1 mph - N/A   Clear
5:56 PM 36.0 °F 28.0 °F 19.9 °F 52% 30.35 in 10.0 mi NNW 11.5 mph - N/A   Clear
6:56 PM 34.0 °F 26.6 °F 19.9 °F 56% 30.36 in 10.0 mi NNW 9.2 mph - N/A   Clear
7:56 PM 32.0 °F 24.8 °F 19.0 °F 59% 30.38 in 10.0 mi North 8.1 mph - N/A   Clear
8:56 PM 30.0 °F 26.5 °F 19.0 °F 64% 30.38 in 10.0 mi NNW 3.5 mph - N/A   Clear
9:56 PM 28.9 °F 22.8 °F 19.9 °F 69% 30.38 in 10.0 mi NNW 5.8 mph - N/A   Clear
10:56 PM 28.0 °F 21.7 °F 19.9 °F 72% 30.38 in 10.0 mi North 5.8 mph - N/A   Clear
11:56 PM 27.0 °F 23.0 °F 19.9 °F 75% 30.38 in 10.0 mi NW 3.5 mph - N/A   Clear